BINAR-1 (49272 NORAD) Tracking and Keplerian Element Data

This shows tracking and keplerian element data for the satellite.

Feedback or suggestion? Click here.




ElementValue
Catalog49272
NameBINAR-1
Epoch Orbit947
Epoch Day339.83919685
Epoch Year2021
RAAN213.0781
Inclination51.6401
Eccentricity0.0003304
Argument of Perigee316.7177
Mean Anonmoly43.3553
Mean Motion15.51726784
Decay Rate0.0001194
L11 49272U 98067SR 21339.83919685 .00011940 00000+0 20408-3 0 9992
L22 49272 51.6401 213.0781 0003304 316.7177 43.3553 15.51726784 9476

Live tracking and technical data element details for BINAR-1 (NORAD 49272). BINAR-1 can be tracked NOW for your location showing map with azimuth and elevation plus other details from your city location.

Track the satellite on the map from your city or location and see movement details for azimuth, elevation, latitude, longitude, range, height, and movement on the map or in text.







IsCatalogInMostPopularTable: catalog: 49272, numindb: 11
Update: records affected: 1



GetName: 49272 BINAR-1

Hit Count: updated at: Mon, 06 Dec 2021 15:28:53 GMT